Location: Ferintosh
(52.7647°N, 112.9692°W)
Time: 13:49:52
(UTC+00:00)

Transit 2A - Pass Details

Date: 20 May 2024
Orbit: 593 x 959 km, 66.7° (Epoch: 14 June)

Event Time Altitude Azimuth Distance (km) Brightness Sun altitude
Rises 16:17:32 0° 314° (NW) 3,399 8.9 41.0°
Reaches altitude 10° 16:20:19 10° 302° (WNW) 2,518 8.3 41.4°
Maximum altitude 16:24:59 25° 249° (WSW) 1,745 7.8 42.1°
Drops below altitude 10° 16:29:53 10° 197° (SSW) 2,649 9.0 42.7°
Sets 16:32:54 0° 185° (S) 3,613 9.7 43.2°
